EDT,Max TemperatureF,Mean TemperatureF,Min TemperatureF,Max Dew PointF,MeanDew PointF,Min DewpointF,Max Humidity, Mean Humidity, Min Humidity, Max Sea Level PressureIn, Mean Sea Level PressureIn, Min Sea Level PressureIn, Max VisibilityMiles, Mean VisibilityMiles, Min VisibilityMiles, Max Wind SpeedMPH, Mean Wind SpeedMPH, Max Gust SpeedMPH,PrecipitationIn, CloudCover, Events, WindDirDegrees
2013-8-1,77,72,68,75,70,66,100,97,83,30.07,29.97,29.87,10,7,2,14,2,20,0.73,7,Rain-Thunderstorm,220
2013-8-2,86,77,68,75,68,63,100,74,45,30.00,29.94,29.88,10,8,1,10,3,,0.01,1,Rain,236
2013-8-3,80,74,69,73,70,64,100,91,61,30.01,29.98,29.96,10,10,7,7,1,,0.00,3,,342
2013-8-4,80,72,63,69,63,57,100,80,45,30.05,29.97,29.93,10,8,0,13,3,18,0.00,2,Fog,343
2013-8-5,82,70,59,63,59,55,98,76,39,30.14,30.09,30.05,10,10,10,10,2,,0.00,1,,24
2013-8-6,71,68,64,72,66,61,100,96,82,30.14,30.10,30.06,10,10,4,12,3,17,0.13,5,Rain,155
2013-8-7,84,75,66,77,69,66,100,94,66,30.14,30.12,30.07,10,10,6,13,7,23,0.01,7,Rain,165
2013-8-8,86,80,73,75,74,71,97,88,66,30.10,30.07,30.04,10,10,10,17,9,17,0.00,3,,206
2013-8-9,89,82,76,79,77,75,100,91,62,30.04,29.97,29.90,10,10,7,21,9,29,0.00,3,Rain-Thunderstorm,216
2013-8-10,82,76,68,77,71,59,100,87,45,30.12,30.04,29.97,10,10,10,7,3,,0.00,4,,323
2013-8-11,84,76,67,73,69,66,100,91,62,30.15,30.11,30.06,10,10,7,8,1,,0.00,4,,134
2013-8-12,87,78,68,77,72,68,100,79,55,30.08,30.02,29.96,10,9,5,7,1,,0.00,3,,325
2013-8-13,84,76,68,79,74,68,100,89,58,29.96,29.85,29.80,10,9,3,16,5,20,0.27,4,Rain,210
2013-8-14,73,66,59,70,58,50,100,76,50,30.12,29.95,29.83,10,10,5,17,5,28,0.02,4,Rain,2
2013-8-15,78,68,57,58,55,52,100,75,42,30.22,30.17,30.13,10,10,10,8,2,,0.00,2,,29
2013-8-16,80,67,54,63,57,53,100,82,42,30.24,30.20,30.18,10,10,10,7,0,,0.00,2,,80
2013-8-17,78,68,58,64,60,57,100,86,50,30.31,30.26,30.23,10,10,10,5,0,,0.00,3,,80
2013-8-18,73,68,63,71,66,63,100,95,78,30.26,30.23,30.02,10,9,2,9,0,,0.01,6,Rain,115
2013-8-19,75,68,62,68,65,62,100,95,73,30.22,30.18,30.13,10,9,4,9,1,,0.00,4,,194
2013-8-20,87,74,62,75,67,63,100,91,58,30.21,30.16,30.13,10,8,1,6,1,,0.00,2,,263
2013-8-21,87,78,68,76,71,69,100,89,58,30.24,30.20,30.13,10,8,3,8,1,,0.00,3,Rain,217
2013-8-22,87,78,69,79,72,70,100,91,58,30.14,30.08,29.97,10,10,7,9,3,,0.16,4,Rain,243
2013-8-23,78,72,66,73,69,63,100,87,65,30.14,30.01,29.97,10,10,7,8,1,,0.00,3,Rain,10
2013-8-24,82,70,59,66,63,57,100,86,51,30.38,30.24,30.14,10,10,7,9,1,,0.00,1,,64
2013-8-25,82,68,55,68,59,55,100,84,42,30.46,30.39,30.33,10,9,2,6,1,,0.00,2,,53
2013-8-26,84,72,60,68,63,59,97,80,55,30.35,30.24,30.05,10,10,10,12,1,,0.00,1,,222
2013-8-27,89,80,70,76,70,66,100,81,52,30.05,29.98,29.92,10,9,5,12,2,,0.01,2,Rain,291
2013-8-28,89,80,71,79,74,71,100,96,59,29.95,29.91,29.87,10,5,2,7,1,,0.00,3,Rain,266
2013-8-29,82,74,67,75,71,67,100,93,62,30.07,29.95,29.87,10,6,2,14,2,9,0.02,6,Rain,60
2013-8-30,82,73,64,73,68,64,100,92,62,30.09,30.05,29.96,10,10,7,9,1,,0.00,4,,218
2013-8-31,87,78,70,75,73,71,100,89,62,29.98,29.92,29.86,10,10,10,17,2,24,0.00,1,,213